[Date Prev][Date Next][Thread Prev][Thread Next] - [Date Index][Thread Index][Author Index]
2 Line ISS Keps 7-9
- Subject: [sarex] 2 Line ISS Keps 7-9
- From: "Dave Larsen PhD" <doc@xxxxxxxxxxx>
- Date: Mon, 9 Jul 2001 03:35:12 -0700
ISS
1 25544U 98067A 01190.21245370 .00029323 00000-0 30765-3 0 1899
2 25544 51.5721 337.2205 0016211 261.9873 101.2546 15.63960189150522
----
Via the sarex mailing list at AMSAT.ORG courtesy of AMSAT-NA.
To unsubscribe, send "unsubscribe sarex" to Majordomo@amsat.org
AMSAT Home